Flag for Canada Weather past 2 weeks in Kawartha Lakes, Ontario, Canada

Now
-5 °F

Frigid.


Feels Like: -14 °F
Forecast: -3 / 13 °F
Wind: 3 mph from Northeast

Location: Lagoon City

Current Time: Jan 26, 2015 at 8:18:31 AM

Latest Report: Jan 26, 2015 at 7:00 AM


Visibility: N/A

Pressure: 30.08 "Hg

Humidity: 81%

Dew point: -9 °F

Location of Kawartha LakesLocation

Historic Weather in Kawartha Lakes — Graph

°F

Kawartha Lakes temperature yesterday

Maximum temperature yesterday: 22 °F (at 12:00 AM)
Minimum temperature yesterday: 3 °F (at 11:00 PM)
Average temperature yesterday: 8 °F

Past Weeks' High & Low Weather Summary

 TemperatureHumidityPressure
High38 °F (Jan 18, 6:00 AM)100% (Jan 18, 9:00 AM)30.85 "Hg (Jan 18, 9:00 AM)
Low-13 °F (Jan 13, 8:00 AM)51% (Jan 13, 4:00 PM)29.41 "Hg (Jan 24, 4:00 PM)
Average15 °F80%30.07 "Hg
* Reported Jan 11 7:00 AM — Jan 26 7:00 AM, Kawartha Lakes, Weather by CustomWeather, © 2014

Note: Actual official high and low records may vary slightly from our data, if they occured in-between our weather recording intervals... More about our weather records

Advertising

Kawartha Lakes weather history for previous 24 hours

 ConditionsComfort  
Time TempWeatherWind HumidityBarometerVisibility
7:00 AM
Jan 26
-5 °FFrigid.3 mph81%30.08 "HgN/A
6:00 AM-6 °FFrigid.5 mph82%30.09 "HgN/A
5:00 AM-5 °FFrigid.2 mph82%30.08 "HgN/A
4:00 AM-4 °FFrigid.5 mph81%30.09 "HgN/A
3:00 AM-3 °FFrigid.3 mph82%30.09 "HgN/A
2:00 AM0 °FFrigid.2 mph79%30.09 "HgN/A
1:00 AM1 °FFrigid.3 mph77%30.10 "HgN/A
12:00 AM2 °FFrigid.3 mph76%30.11 "HgN/A
11:00 PM
Jan 25
3 °FFrigid.6 mph77%30.10 "HgN/A
10:00 PM4 °FFrigid.3 mph77%30.10 "HgN/A
9:00 PM5 °FFrigid.7 mph77%30.10 "HgN/A
8:00 PM6 °FFrigid.5 mph74%30.10 "HgN/A
7:00 PM7 °FFrigid.9 mph71%30.08 "HgN/A
6:00 PM8 °FFrigid.10 mph66%30.05 "HgN/A
5:00 PM10 °FCold.9 mph59%30.03 "HgN/A
4:00 PM10 °FFrigid.12 mph64%30.01 "HgN/A
3:00 PM10 °FFrigid.10 mph62%29.99 "HgN/A
2:00 PM10 °FFrigid.9 mph60%29.97 "HgN/A
1:00 PM9 °FFrigid.8 mph57%29.94 "HgN/A
12:00 PM7 °FFrigid.12 mph62%29.96 "HgN/A
11:00 AM5 °FFrigid.12 mph64%29.96 "HgN/A
10:00 AM4 °FFrigid.10 mph68%29.95 "HgN/A
9:00 AM4 °FFrigid.7 mph75%29.92 "HgN/A
8:00 AM4 °FFrigid.9 mph83%29.89 "HgN/A
Weather by CustomWeather, © 2014

See weather overviewHow to use our weather pages